Keokuk, IA

5:22 PM CST on November 23, 2017 (GMT -0600)
Keokuk Municipal

Weather History for KEOK - February, 2014

Change the Weather History Date:

Friday, February 21, 2014

  Actual Average Record
Temperature  
Mean Temperature 35 °F -  
Max Temperature 44 °F 44 °F 68 °F (2017)
Min Temperature 26 °F 26 °F -4 °F (1963)
Degree Days  
Heating Degree Days 30    
Moisture  
Dew Point 22 °F    
Average Humidity 61    
Maximum Humidity 86    
Minimum Humidity 42    
Precipitation  
Precipitation 0.00 in - - ()
Sea Level Pressure  
Sea Level Pressure 29.77 in    
Wind  
Wind Speed 16 mph (WSW)    
Max Wind Speed 25 mph    
Max Gust Speed 36 mph    
Visibility 10 miles    
Events Rain , Snow    
Averages and records for this station are not official NWS values.
T = Trace of Precipitation, MM = Missing Value Source: NWS Daily Summary

Daily Weather History Graph

Daily Weather History Graph

Search for Another Location

Airport or City:

Trip Planner

Search our weather history database for the weather conditions in past years. The results will help you decide how hot, cold, wet, or windy it might be!

Date:

Astronomy

Feb. 21, 2014 Rise Set
Actual Time 6:51 AM CST 5:48 PM CST
Civil Twilight 6:23 AM CST 6:15 PM CST
Nautical Twilight 5:51 AM CST 6:47 PM CST
Astronomical Twilight 5:20 AM CST 7:19 PM CST
Moon No Moon Rise 10:14 AM CST (2/21)
Length of Visible Light 11h 52m
Length of Day
10h 57m
Waning Gibbous, 60% of the Moon is Illuminated
Feb 21
Waning Gibbous
Feb 22
Last Quarter
Mar 1
New
Mar 8
First Quarter
Mar 16
Full

Hourly Weather History & Observations

Time (CST) Temp. Windchill Dew Point Humidity Pressure Visibility Wind Dir Wind Speed Gust Speed Precip Events Conditions
12:15 AM 33.8 °F 23.5 °F 26.6 °F 75% 29.56 in 10.0 mi West 16.1 mph 27.6 mph N/A   Overcast
12:35 AM 33.8 °F 21.3 °F 24.8 °F 70% 29.57 in 10.0 mi West 24.2 mph 32.2 mph N/A   Overcast
12:55 AM 32.0 °F 19.8 °F 23.0 °F 69% 29.58 in 10.0 mi West 20.7 mph 27.6 mph N/A   Overcast
1:15 AM 32.0 °F 19.2 °F 23.0 °F 69% 29.59 in 10.0 mi West 23.0 mph 31.1 mph N/A   Overcast
1:35 AM 32.0 °F 18.6 °F 24.8 °F 75% 29.60 in 10.0 mi West 25.3 mph 33.4 mph N/A   Overcast
1:55 AM 32.0 °F 20.5 °F 24.8 °F 75% 29.62 in 9.0 mi West 18.4 mph 26.5 mph N/A Snow Light Snow
2:15 AM 32.0 °F 21.2 °F 24.8 °F 75% 29.63 in 10.0 mi West 16.1 mph 24.2 mph N/A   Overcast
2:35 AM 30.2 °F 16.5 °F 24.8 °F 80% 29.64 in 10.0 mi West 24.2 mph 31.1 mph N/A Rain Light Freezing Rain
2:55 AM 30.2 °F 17.1 °F 23.0 °F 75% 29.65 in 10.0 mi West 21.9 mph 35.7 mph N/A Rain Light Freezing Rain
3:15 AM 30.2 °F 18.1 °F 23.0 °F 75% 29.66 in 10.0 mi West 18.4 mph 32.2 mph N/A Rain Light Freezing Rain
3:30 AM 30.2 °F 17.8 °F 23.0 °F 75% 29.67 in 10.0 mi West 19.6 mph 27.6 mph N/A   Overcast
3:55 AM 30.2 °F 17.8 °F 21.2 °F 69% 29.67 in 10.0 mi West 19.6 mph 33.4 mph N/A   Overcast
4:15 AM 30.2 °F 18.5 °F 21.2 °F 69% 29.68 in 10.0 mi West 17.3 mph 25.3 mph N/A   Overcast
4:35 AM 30.2 °F 18.1 °F 19.4 °F 64% 29.70 in 10.0 mi West 18.4 mph 31.1 mph N/A   Overcast
4:55 AM 30.2 °F 17.8 °F 19.4 °F 64% 29.72 in 10.0 mi West 19.6 mph 35.7 mph N/A   Overcast
5:15 AM 28.4 °F 14.1 °F 19.4 °F 69% 29.73 in 10.0 mi West 24.2 mph 34.5 mph N/A   Mostly Cloudy
5:35 AM 28.4 °F 14.7 °F 19.4 °F 69% 29.74 in 10.0 mi West 21.9 mph 31.1 mph N/A   Mostly Cloudy
5:55 AM 28.4 °F 15.1 °F 19.4 °F 69% 29.74 in 10.0 mi West 20.7 mph 31.1 mph N/A   Mostly Cloudy
6:15 AM 26.6 °F 13.1 °F 17.6 °F 69% 29.74 in 10.0 mi West 19.6 mph 26.5 mph N/A   Partly Cloudy
6:35 AM 26.6 °F 13.4 °F 17.6 °F 69% 29.75 in 10.0 mi West 18.4 mph 25.3 mph N/A   Clear
6:55 AM 26.6 °F 13.8 °F 17.6 °F 69% 29.75 in 10.0 mi West 17.3 mph 25.3 mph N/A   Clear
7:15 AM 26.6 °F 13.4 °F 17.6 °F 69% 29.76 in 10.0 mi West 18.4 mph - N/A   Clear
7:35 AM 28.4 °F 14.4 °F 17.6 °F 64% 29.78 in 10.0 mi WSW 23.0 mph - N/A   Clear
7:55 AM 28.4 °F 16.2 °F 17.6 °F 64% 29.79 in 10.0 mi West 17.3 mph 29.9 mph N/A   Clear
8:15 AM 28.4 °F 14.1 °F 17.6 °F 64% 29.80 in 10.0 mi West 24.2 mph 29.9 mph N/A   Clear
8:35 AM 30.2 °F 17.8 °F 17.6 °F 60% 29.81 in 10.0 mi West 19.6 mph 28.8 mph N/A   Clear
8:55 AM 30.2 °F 16.8 °F 17.6 °F 60% 29.81 in 10.0 mi WSW 23.0 mph - N/A   Clear
9:15 AM 30.2 °F 17.1 °F 15.8 °F 55% 29.81 in 10.0 mi West 21.9 mph 28.8 mph N/A   Clear
9:35 AM 32.0 °F 20.5 °F 15.8 °F 51% 29.82 in 10.0 mi West 18.4 mph 31.1 mph N/A   Clear
9:55 AM 33.8 °F 22.5 °F 15.8 °F 48% 29.82 in 10.0 mi WSW 19.6 mph 29.9 mph N/A   Clear
10:15 AM 33.8 °F 23.2 °F 15.8 °F 48% 29.82 in 10.0 mi WSW 17.3 mph 29.9 mph N/A   Clear
10:35 AM 33.8 °F 23.2 °F 15.8 °F 48% 29.82 in 10.0 mi WSW 17.3 mph 27.6 mph N/A   Clear
10:55 AM 35.6 °F 25.5 °F 17.6 °F 48% 29.82 in 10.0 mi WSW 17.3 mph 24.2 mph N/A   Clear
11:15 AM 37.4 °F 27.5 °F 17.6 °F 45% 29.82 in 10.0 mi WSW 18.4 mph - N/A   Clear
11:35 AM 37.4 °F 27.5 °F 17.6 °F 45% 29.82 in 10.0 mi West 18.4 mph 24.2 mph N/A   Clear
11:55 AM 37.4 °F 27.8 °F 17.6 °F 45% 29.82 in 10.0 mi WSW 17.3 mph 25.3 mph N/A   Clear
12:15 PM 39.2 °F 30.5 °F 19.4 °F 45% 29.82 in 10.0 mi WSW 16.1 mph - N/A   Clear
12:35 PM 39.2 °F 30.2 °F 19.4 °F 45% 29.81 in 10.0 mi WSW 17.3 mph - N/A   Clear
12:55 PM 41.0 °F 33.1 °F 21.2 °F 45% 29.80 in 10.0 mi WSW 15.0 mph 23.0 mph N/A   Clear
1:15 PM 41.0 °F 32.5 °F 21.2 °F 45% 29.80 in 10.0 mi WSW 17.3 mph - N/A   Clear
1:35 PM 42.8 °F 35.1 °F 21.2 °F 42% 29.79 in 10.0 mi WSW 16.1 mph - N/A   Clear
1:55 PM 42.8 °F 35.4 °F 23.0 °F 46% 29.79 in 10.0 mi WSW 15.0 mph 20.7 mph N/A   Clear
2:15 PM 42.8 °F 35.4 °F 23.0 °F 46% 29.78 in 10.0 mi SW 15.0 mph - N/A   Clear
2:35 PM 42.8 °F 35.4 °F 23.0 °F 46% 29.78 in 10.0 mi SW 15.0 mph 20.7 mph N/A   Clear
2:55 PM 44.6 °F 37.8 °F 24.8 °F 46% 29.78 in 10.0 mi SW 15.0 mph - N/A   Scattered Clouds
3:15 PM 44.6 °F 38.8 °F 24.8 °F 46% 29.78 in 10.0 mi SW 11.5 mph 20.7 mph N/A   Mostly Cloudy
3:35 PM 44.6 °F 38.8 °F 23.0 °F 43% 29.79 in 10.0 mi SW 11.5 mph - N/A   Mostly Cloudy
3:55 PM 42.8 °F 36.6 °F 23.0 °F 46% 29.79 in 10.0 mi SW 11.5 mph - N/A   Overcast
4:15 PM 44.6 °F 40.7 °F 24.8 °F 46% 29.79 in 10.0 mi SW 6.9 mph - N/A   Overcast
4:30 PM 44.6 °F 42.2 °F 24.8 °F 46% 29.79 in 10.0 mi SW 4.6 mph - N/A   Overcast
4:55 PM 44.6 °F 43.1 °F 24.8 °F 46% 29.78 in 10.0 mi SSW 3.5 mph - N/A   Overcast
5:15 PM 44.6 °F 43.1 °F 24.8 °F 46% 29.78 in 10.0 mi SW 3.5 mph - N/A   Overcast
5:35 PM 44.6 °F - 24.8 °F 46% 29.78 in 10.0 mi Calm Calm - N/A   Mostly Cloudy
5:55 PM 41.0 °F - 24.8 °F 53% 29.79 in 10.0 mi Calm Calm - N/A   Mostly Cloudy
6:15 PM 41.0 °F - 24.8 °F 53% 29.79 in 10.0 mi Calm Calm - N/A   Mostly Cloudy
6:35 PM 39.2 °F 37.0 °F 24.8 °F 56% 29.80 in 10.0 mi North 3.5 mph - N/A   Partly Cloudy
6:55 PM 37.4 °F - 24.8 °F 60% 29.81 in 10.0 mi Calm Calm - N/A   Clear
7:15 PM 39.2 °F 32.5 °F 24.8 °F 56% 29.82 in 10.0 mi WSW 10.4 mph - N/A   Clear
7:35 PM 39.2 °F 31.6 °F 26.6 °F 61% 29.83 in 10.0 mi West 12.7 mph - N/A   Clear
7:55 PM 37.4 °F 31.4 °F 24.8 °F 60% 29.84 in 10.0 mi NNW 8.1 mph - N/A   Clear
8:15 PM 35.6 °F 29.9 °F 24.8 °F 65% 29.85 in 10.0 mi NNW 6.9 mph - N/A   Clear
8:35 PM 35.6 °F 31.7 °F 24.8 °F 65% 29.85 in 10.0 mi NNW 4.6 mph - N/A   Clear
8:55 PM 33.8 °F - 24.8 °F 70% 29.87 in 10.0 mi Calm Calm - N/A   Clear
9:10 PM 33.8 °F - 24.8 °F 70% 29.87 in 10.0 mi Calm Calm - N/A   Clear
9:35 PM 33.8 °F - 24.8 °F 70% 29.87 in 10.0 mi Calm Calm - N/A   Clear
9:55 PM 32.0 °F - 24.8 °F 75% 29.87 in 10.0 mi Calm Calm - N/A   Scattered Clouds
10:15 PM 32.0 °F - 24.8 °F 75% 29.87 in 10.0 mi Calm Calm - N/A   Partly Cloudy
10:35 PM 32.0 °F - 24.8 °F 75% 29.87 in 10.0 mi Calm Calm - N/A   Clear
10:55 PM 28.4 °F 24.6 °F 23.0 °F 80% 29.88 in 10.0 mi West 3.5 mph - N/A   Clear
11:15 PM 28.4 °F 24.6 °F 24.8 °F 86% 29.88 in 10.0 mi SW 3.5 mph - N/A   Clear
11:35 PM 28.4 °F 24.6 °F 23.0 °F 80% 29.89 in 10.0 mi SW 3.5 mph - N/A   Clear
11:55 PM 28.4 °F - 23.0 °F 80% 29.89 in 10.0 mi Calm Calm - N/A   Clear